Date String (YYYY-MM-DD hh:mm:ss) UTC,Instrument flags,absolute air pressure of the measurement (hPa),sample flow rate (lpm),inlet stack bypass flow (lpm),air temperature of the measurement (°C),ambient temperature measured by the external sensor (°C),aerosol sample conditioner tube jacket temperature (°C),OPC LED temperature (°C),internal box temperature (°C),relative humidity of the measurement (%),span deviation,mass concentration of particles derived from Lorenz-Mie calculation of OPC scattering (μg/m³),mass concentration of particles derived from Lorenz-Mie calculation of OPC scattering (μg/m³),mass concentration of particles derived from Lorenz-Mie calculation of OPC scattering (μg/m³)
DateTimeUTC,F1_M11,P_M11,Q1_M11,Q2_M11,T1_M11,T2_M11,T3_M11,T4_M11,T5_M11,U1_M11,ZSPAN_M11,X0_M11,X2_M11,X1_M11
2023-07-03 06:00:00,SystemResetWarning,0833.3,5.00,000.00,029.1,027.3,000.0,037.6,030.6,24.8,0000.0,0011.48,0005.19,0004.66
2023-07-03 06:01:00,SystemResetWarning,0833.3,4.99,000.00,029.1,027.5,000.0,037.6,030.7,24.4,0000.0,0011.18,0005.19,0004.64
2023-07-03 06:02:00,SystemResetWarning,0833.3,5.00,000.00,029.1,027.6,000.0,037.6,030.7,25.3,0000.0,0011.16,0005.18,0004.63
2023-07-03 06:03:00,SystemResetWarning,0833.3,5.00,000.00,029.2,027.8,000.0,037.6,030.8,24.7,0000.0,0010.89,0005.19,0004.62
2023-07-03 06:04:00,SystemResetWarning,0833.3,5.00,000.00,029.2,027.9,000.0,037.7,030.8,24.2,0000.0,0010.12,0005.21,0004.61
2023-07-03 06:05:00,SystemResetWarning,0833.2,5.00,000.00,029.2,028.0,000.0,037.7,030.9,24.5,0000.0,0010.03,0005.18,0004.60
2023-07-03 06:06:00,SystemResetWarning,0833.2,5.00,000.00,029.3,028.1,000.0,037.7,030.9,24.9,0000.0,0009.91,0005.18,0004.59
2023-07-03 06:07:00,SystemResetWarning,0833.3,5.00,000.00,029.3,028.1,000.0,037.7,030.9,24.6,0000.0,0009.75,0005.15,0004.59
2023-07-03 06:08:00,SystemResetWarning,0833.3,5.01,000.00,029.3,028.2,000.0,037.7,030.9,24.0,0000.0,0009.58,0005.11,0004.57
2023-07-03 06:09:00,SystemResetWarning,0833.2,5.01,000.00,029.3,028.3,000.0,037.8,031.0,23.8,0000.0,0009.35,0005.06,0004.56
2023-07-03 06:10:00,SystemResetWarning,0833.2,5.00,000.00,029.4,028.3,000.0,037.8,031.0,24.2,0000.0,0008.94,0005.01,0004.55
2023-07-03 06:11:00,SystemResetWarning,0833.2,5.00,000.00,029.4,028.4,000.0,037.8,031.1,24.0,0000.0,0008.86,0004.99,0004.54
2023-07-03 06:12:00,SystemResetWarning,0833.2,4.98,000.00,029.4,027.5,000.0,037.8,031.1,23.9,0000.0,0008.91,0004.99,0004.55
2023-07-03 06:13:00,SystemResetWarning,0833.2,5.00,000.00,029.4,025.6,000.0,037.6,030.9,24.2,0000.0,0009.02,0004.98,0004.54
2023-07-03 06:14:00,SystemResetWarning,0833.1,5.00,000.00,029.3,025.2,000.0,037.6,030.6,24.2,0000.0,0009.67,0004.98,0004.54
2023-07-03 06:15:00,SystemResetWarning,0833.1,5.01,000.00,029.2,025.4,000.0,037.6,030.4,24.5,0000.0,0009.73,0004.97,0004.53
2023-07-03 06:16:00,SystemResetWarning,0833.1,5.00,000.00,029.1,025.8,000.0,037.6,030.4,24.9,0000.0,0009.92,0005.03,0004.53
2023-07-03 06:17:00,SystemResetWarning,0833.1,4.98,000.00,029.1,026.2,000.0,037.6,030.5,25.0,0000.0,0010.29,0005.01,0004.52
2023-07-03 06:18:00,SystemResetWarning,0833.1,5.01,000.00,029.1,026.5,000.0,037.7,030.5,25.1,0000.0,0010.14,0005.01,0004.52
2023-07-03 06:19:00,SystemResetWarning,0833.1,5.01,000.00,029.1,026.9,000.0,037.7,030.6,25.3,0000.0,0010.03,0005.02,0004.53
2023-07-03 06:20:00,SystemResetWarning,0833.2,5.00,000.00,029.1,027.1,000.0,037.7,030.6,25.0,0000.0,0009.89,0005.04,0004.52
2023-07-03 06:21:00,SystemResetWarning,0833.1,4.99,000.00,029.1,027.4,000.0,037.7,030.7,24.3,0000.0,0009.86,0005.04,0004.51
2023-07-03 06:22:00,SystemResetWarning,0833.4,5.00,000.00,029.2,027.5,000.0,037.7,030.7,24.6,0000.0,0009.80,0005.01,0004.51
2023-07-03 06:23:00,SystemResetWarning,0833.4,4.99,000.00,029.2,027.7,000.0,037.7,030.8,25.0,0000.0,0009.80,0005.01,0004.51
2023-07-03 06:24:00,SystemResetWarning,0833.0,5.00,000.00,029.2,027.8,000.0,037.7,030.8,24.9,0000.0,0009.89,0005.01,0004.49
2023-07-03 06:25:00,SystemResetWarning,0833.1,5.00,000.00,029.3,027.9,000.0,037.7,030.8,24.0,0000.0,0009.13,0004.98,0004.49
2023-07-03 06:26:00,SystemResetWarning,0833.3,5.00,000.00,029.3,028.0,000.0,037.7,030.9,24.0,0000.0,0008.88,0004.92,0004.48
2023-07-03 06:27:00,SystemResetWarning,0833.3,5.00,000.00,029.3,028.1,000.0,037.7,030.9,24.3,0000.0,0009.36,0004.85,0004.47
2023-07-03 06:28:00,SystemResetWarning,0833.1,5.00,000.00,029.3,028.2,000.0,037.8,031.0,23.9,0000.0,0010.10,0004.86,0004.46
2023-07-03 06:29:00,SystemResetWarning,0833.1,5.00,000.00,029.4,028.2,000.0,037.8,031.0,23.6,0000.0,0010.03,0004.88,0004.45
2023-07-03 06:30:00,SystemResetWarning,0833.2,5.00,000.00,029.4,028.3,000.0,037.8,031.0,24.2,0000.0,0010.08,0004.88,0004.44
2023-07-03 06:31:00,SystemResetWarning,0833.3,4.99,000.00,029.4,028.3,000.0,037.8,031.1,24.0,0000.0,0009.97,0004.86,0004.44
2023-07-03 06:32:00,SystemResetWarning,0833.2,4.99,000.00,029.5,028.4,000.0,037.9,031.1,23.5,0000.0,0010.09,0004.88,0004.44
2023-07-03 06:33:00,SystemResetWarning,0833.2,4.99,000.00,029.5,028.0,000.0,037.9,031.1,23.4,0000.0,0010.33,0004.91,0004.44
2023-07-03 06:34:00,SystemResetWarning,0833.1,5.00,000.00,029.5,026.1,000.0,037.8,030.8,23.4,0000.0,0010.21,0004.88,0004.43
2023-07-03 06:35:00,SystemResetWarning,0833.0,5.00,000.00,029.3,025.1,000.0,037.7,030.6,23.4,0000.0,0009.99,0004.86,0004.43
2023-07-03 06:36:00,SystemResetWarning,0833.2,5.00,000.00,029.2,025.2,000.0,037.7,030.3,23.6,0000.0,0010.14,0004.90,0004.44
2023-07-03 06:37:00,SystemResetWarning,0833.3,5.01,000.00,029.1,025.5,000.0,037.7,030.3,23.7,0000.0,0010.36,0004.94,0004.45
2023-07-03 06:38:00,SystemResetWarning,0833.2,5.00,000.00,029.1,025.9,000.0,037.7,030.4,23.8,0000.0,0009.99,0004.95,0004.45
2023-07-03 06:39:00,SystemResetWarning,0833.1,5.00,000.00,029.1,026.3,000.0,037.7,030.5,23.7,0000.0,0008.80,0004.93,0004.46
2023-07-03 06:40:00,SystemResetWarning,0833.0,5.00,000.00,029.1,026.7,000.0,037.7,030.5,24.1,0000.0,0008.83,0004.93,0004.48
2023-07-03 06:41:00,SystemResetWarning,0833.0,4.99,000.00,029.1,027.0,000.0,037.7,030.6,24.2,0000.0,0008.90,0004.93,0004.49
2023-07-03 06:42:00,SystemResetWarning,0833.0,5.00,000.00,029.1,027.2,000.0,037.7,030.6,23.8,0000.0,0008.93,0004.95,0004.50
2023-07-03 06:43:00,SystemResetWarning,0833.0,5.00,000.00,029.1,027.4,000.0,037.7,030.7,23.7,0000.0,0008.91,0004.95,0004.50
2023-07-03 06:44:00,SystemResetWarning,0833.0,5.00,000.00,029.2,027.6,000.0,037.7,030.7,23.7,0000.0,0008.52,0004.94,0004.52
2023-07-03 06:45:00,SystemResetWarning,0833.0,5.01,000.00,029.2,027.7,000.0,037.7,030.8,23.5,0000.0,0008.53,0004.94,0004.52
2023-07-03 06:46:00,SystemResetWarning,0833.3,5.00,000.00,029.2,027.8,000.0,037.7,030.8,23.7,0001.2,0008.71,0004.96,0004.52
2023-07-03 06:47:00,SystemResetWarning,0833.2,5.00,000.00,029.2,027.9,000.0,037.7,030.8,23.5,0000.0,0009.37,0004.97,0004.53
2023-07-03 06:48:00,SystemResetWarning,0833.4,5.00,000.00,029.3,028.0,000.0,037.7,030.9,23.2,0000.3,0009.62,0004.98,0004.53
2023-07-03 06:49:00,SystemResetWarning,0833.3,5.00,000.00,029.3,028.1,000.0,037.8,030.9,23.2,0000.2,0009.92,0004.97,0004.53
2023-07-03 06:50:00,SystemResetWarning,0832.9,5.00,000.00,029.3,028.1,000.0,037.8,030.9,23.2,0000.0,0010.79,0004.99,0004.53
2023-07-03 06:51:00,SystemResetWarning,0832.9,5.00,000.00,029.3,028.2,000.0,037.8,031.0,23.2,0000.0,0010.96,0005.02,0004.54
2023-07-03 06:52:00,SystemResetWarning,0833.0,5.00,000.00,029.4,028.2,000.0,037.8,031.0,23.1,0000.0,0011.09,0005.05,0004.54
2023-07-03 06:53:00,SystemResetWarning,0833.0,5.00,000.00,029.4,028.3,000.0,037.8,031.0,23.2,0000.0,0011.27,0005.01,0004.53
2023-07-03 06:54:00,SystemResetWarning,0833.0,5.00,000.00,029.4,028.3,000.0,037.9,031.1,23.2,0000.0,0011.39,0005.02,0004.53
2023-07-03 06:55:00,SystemResetWarning,0832.9,5.00,000.00,029.5,028.4,000.0,037.9,031.1,23.0,0000.0,0011.60,0005.02,0004.52
2023-07-03 06:56:00,SystemResetWarning,0832.9,5.00,000.00,029.5,028.4,000.0,037.9,031.1,23.0,0000.0,0012.02,0005.09,0004.53
2023-07-03 06:57:00,SystemResetWarning,0832.9,5.00,000.00,029.5,028.4,000.0,037.9,031.2,22.9,0000.0,0012.38,0005.13,0004.53
2023-07-03 06:58:00,SystemResetWarning,0832.9,5.00,000.00,029.6,028.1,000.0,037.9,031.2,22.9,0000.0,0011.79,0005.11,0004.53
2023-07-03 06:59:00,SystemResetWarning,0833.0,5.00,000.00,029.5,026.2,000.0,037.8,031.0,22.7,0000.0,0012.16,0005.10,0004.53
